User: anonymous   Login
Location: Chiroubles
(46.1812°N, 4.6660°E)
Time: 10:50:23
(UTC+00:00)
Language:

Cosmos 841 Rocket - Orbit

View from above orbital plane
View from above orbital plane
View from above satellite
View from above satellite

Ground track
Ground track

The orbit data is extracted from the following two-line orbital elements,

1  9023U 76069B   20304.84832466 +.00000039 +00000-0 +20792-4 0  9998
2  9023 074.0438 343.4144 0018093 208.6164 151.4000 14.39663237321778
Epoch (UTC): 30 October 2020 20:21:35
Eccentricity: 0.0018093
inclination: 74.0438°
perigee height: 747 km
apogee height: 772 km
right ascension of ascending node: 343.4144°
argument of perigee: 208.6164°
revolutions per day: 14.39663237
mean anomaly at epoch: 151.4000°
orbit number at epoch: 32177

The dashed part of the orbit path shows where the satellite is in the earth's shadow,  

DLR